Temp_Advection
nan nan nan nan nan nan nan nan nan nan nan nan nan nan nan nan nan nan nan nan nan nan nan nan nan nan nan nan nan nan nan nan nan nan nan nan nan nan
nan 1 0 1 0 0 0 0 0 1 -0 -1 -0 0 0 0 0 1 1 -0 -0 -0 -0 1 1 -0 -1 -1 -0 -0 -0 -0 -0 -1 -1 -0 -0 nan
nan 1 1 0 0 0 0 0 0 0 0 -1 -1 -0 0 -0 -0 0 0 -0 -1 -0 0 2 1 -0 -1 -1 -0 -0 -0 -0 -0 -1 -0 -0 -0 nan
nan 0 0 0 0 -0 -0 0 1 1 0 -0 -1 -1 -1 -1 -1 -0 -0 -0 -1 -1 0 1 1 0 0 -1 -1 -0 -0 -0 -0 -0 -0 -1 -0 nan
nan 0 0 0 -0 0 0 0 0 1 1 1 -1 -1 -1 -1 -1 -1 -1 -1 -1 -1 -0 0 0 0 1 1 -0 0 0 -0 -0 -0 -0 -0 -0 nan
nan -0 0 -0 -0 0 1 0 -0 0 1 1 0 0 -0 -1 -0 -0 -1 -1 -1 -2 -1 0 0 0 0 1 0 0 0 0 1 1 -1 -0 -0 nan
nan 0 -0 -0 -0 -0 0 0 0 0 0 1 0 -0 -0 -0 -1 -0 -1 -1 -1 -2 -2 -1 -1 -1 0 0 0 -0 -0 0 1 1 -1 -0 -0 nan
nan -0 0 -0 -0 0 1 1 -0 0 1 0 -0 -0 0 0 -0 -0 -0 -0 -1 -1 -2 -1 -1 -1 -1 -0 -0 -0 0 1 1 -1 -0 -0 -0 nan
nan 0 0 0 -0 0 0 0 0 1 1 0 0 0 -0 0 0 -0 0 1 -0 -1 -1 -2 -0 -1 -1 -0 -0 -0 -0 1 1 -0 -1 -0 -0 nan
nan -0 -0 -0 0 -0 0 -0 -1 -0 1 0 0 1 1 0 0 0 -0 -0 0 0 1 -2 -1 -0 -1 -1 -1 -1 -0 0 1 1 -0 -0 -0 nan
nan -0 -0 -0 0 0 -0 -1 -1 -1 0 0 0 0 0 0 1 0 0 0 -1 -1 1 -0 -2 -2 -2 -1 -1 -1 -1 -0 0 1 1 0 -1 nan
nan 0 -0 -0 1 0 -0 -0 -1 -1 -1 -1 0 0 0 0 0 1 1 1 0 -1 0 0 -1 0 -2 -2 -1 -1 -1 -0 -0 0 1 1 1 nan
nan -0 0 -0 0 1 1 0 0 -0 -1 -1 -0 -0 -0 -0 0 0 0 1 1 -0 1 2 -0 1 1 -2 -2 -1 -1 -1 -1 -0 0 1 1 nan
nan -0 -0 0 0 -0 -0 0 0 0 -0 -0 -0 -0 -0 -0 -0 0 0 1 1 1 0 2 1 0 1 -0 -3 -1 -1 -0 -0 -0 -0 0 1 nan
nan -0 -0 -0 -0 -0 0 0 0 0 -0 -0 -0 -0 -0 -0 -0 -0 0 0 0 1 1 1 1 1 1 1 -1 -2 -1 -2 0 0 0 -0 -0 nan
nan -0 0 0 -0 -0 -0 0 0 0 0 -0 -0 -0 -0 -0 0 -0 -0 -0 -1 -1 1 1 1 1 1 1 0 -1 1 -1 -2 0 0 -0 0 nan
nan -0 -0 -0 -0 0 0 0 0 0 0 0 -0 -0 -0 -0 -0 0 -0 -0 -1 -2 -1 0 1 1 1 0 -1 -1 -0 0 -0 0 0 -2 -1 nan
nan -0 -0 -0 -0 -0 -0 -0 0 0 -0 -0 -0 -0 -0 -1 -1 -0 0 -0 0 -0 -1 -1 -0 -1 -1 0 0 -1 -1 -1 -1 0 1 -0 -3 nan
nan -0 -0 -0 -0 -0 -0 -0 -0 0 0 0 0 0 -0 -0 -0 -0 0 -0 -0 -0 -0 0 0 0 -0 -2 -1 1 -1 -0 0 -0 1 1 -1 nan
nan -0 -0 -0 -0 -0 -0 -0 -0 0 -0 -0 0 0 0 -0 -0 -0 0 0 0 -0 -1 -0 1 1 1 1 -4 1 3 1 0 0 0 0 -0 nan
nan 0 -0 -0 -0 -0 -0 -0 -0 0 0 -0 -0 0 0 0 -0 -0 0 0 0 0 -0 -1 0 1 1 0 -1 -3 1 2 1 1 1 0 -1 nan
nan 0 0 0 -0 -0 -0 -0 -0 -0 0 0 0 0 0 1 0 0 -0 0 0 0 0 -0 -1 0 0 0 -0 -1 -1 1 1 1 1 1 1 nan
nan nan nan nan nan nan nan nan nan nan nan nan nan nan nan nan nan nan nan nan nan nan nan nan nan nan nan nan nan nan nan nan nan nan nan nan nan nan
Wind_Speed
27 24 20 17 14 17 17 17 17 15 21 19 18 19 26 31 33 35 35 36 34 33 32 31 29 28 27 27 27 28 27 28 27 30 28 28 28 29
23 19 18 14 12 14 15 16 18 19 18 21 24 27 29 31 32 34 35 35 34 34 33 32 28 27 27 27 27 27 28 29 29 29 29 28 28 28
20 17 14 11 10 11 14 16 19 21 25 27 28 27 30 32 33 34 34 35 36 36 33 30 27 26 26 27 28 28 28 28 28 28 28 29 29 30
13 11 10 9 10 12 16 19 21 22 26 30 31 31 32 33 34 35 35 35 36 32 28 27 26 27 26 26 26 26 26 28 28 30 31 31 32 32
13 9 8 10 13 15 18 19 21 23 25 29 31 33 35 33 36 36 37 38 35 30 27 28 28 26 24 24 26 28 30 31 31 30 31 31 31 32
10 9 8 11 14 16 18 21 22 24 25 28 31 32 33 34 35 39 42 38 34 32 29 28 28 29 30 29 29 29 29 30 30 29 30 30 30 31
8 8 10 13 16 18 20 22 23 24 25 27 29 32 34 34 37 38 37 35 37 35 34 34 36 36 32 32 32 30 29 28 28 28 29 30 31 32
7 8 12 15 17 19 20 20 20 22 22 25 28 32 35 36 35 31 32 35 36 32 39 44 37 38 36 35 32 31 30 29 30 30 31 31 31 31
7 10 13 16 18 20 20 20 19 19 19 24 30 32 32 28 28 32 34 37 39 39 38 45 40 41 33 34 33 31 27 26 28 28 26 27 29 29
9 13 15 17 19 20 20 19 21 24 25 26 26 26 25 26 28 31 34 37 38 36 34 42 37 39 42 42 37 26 23 23 27 26 26 27 28 29
11 14 18 19 20 19 17 22 26 26 22 21 21 21 22 23 24 29 30 33 39 38 36 24 40 45 48 41 30 32 35 31 32 32 31 30 29 30
14 16 18 20 20 15 18 24 26 23 21 21 20 18 19 21 22 24 26 29 34 37 30 33 40 37 36 35 37 39 36 34 31 30 31 30 29 30
17 19 19 20 20 20 19 21 21 19 22 21 21 21 20 21 20 19 24 28 31 33 35 31 38 36 33 44 46 44 41 39 38 36 32 29 27 26
20 20 20 21 21 20 19 17 16 18 19 20 22 22 23 20 22 23 23 25 28 33 32 29 32 32 34 40 46 47 45 43 41 38 31 25 25 24
18 19 20 21 21 19 16 15 16 17 19 20 22 23 21 23 24 25 27 29 31 31 29 26 28 28 29 36 42 46 45 42 33 31 33 31 28 26
19 19 20 20 18 16 15 13 14 16 18 21 23 21 22 25 27 30 33 33 35 34 31 28 26 27 31 33 37 42 38 40 35 32 34 34 32 29
20 19 19 19 17 15 13 12 14 15 18 20 21 21 24 28 31 33 33 35 36 37 35 29 29 30 31 32 34 34 34 37 37 37 36 36 32 30
19 20 20 18 16 16 15 15 15 17 19 21 19 21 25 30 34 32 32 35 37 36 36 35 35 37 37 36 29 35 40 40 39 37 36 37 39 32
18 18 17 16 15 15 16 18 19 19 20 21 19 21 27 32 32 33 34 34 37 36 37 37 37 36 38 39 43 27 33 39 35 36 34 34 36 34
16 16 15 15 15 16 17 19 19 21 21 20 19 23 28 31 32 33 33 35 38 38 39 37 37 37 35 39 43 39 32 34 33 34 33 32 33 32
15 13 13 14 15 17 18 19 20 22 24 21 19 25 29 30 33 33 33 34 36 37 39 40 38 35 35 34 36 40 37 29 26 28 29 30 31 30
14 12 12 13 16 18 19 20 22 22 22 18 21 27 30 30 34 34 35 37 37 38 39 42 40 38 36 33 34 35 36 33 27 26 24 20 24 26
13 12 12 13 16 19 21 22 24 24 21 19 24 30 31 33 35 35 36 37 37 38 39 42 42 38 36 32 31 32 32 33 35 35 31 22 20 23
Wind_Direction
233 235 235 242 247 262 270 273 278 283 292 292 295 297 301 302 306 307 310 311 312 312 311 306 299 295 294 292 288 286 286 282 281 280 279 277 278 276
224 220 228 242 248 271 280 281 281 285 282 291 293 297 300 302 304 306 309 311 312 312 312 305 299 296 292 288 286 286 283 281 281 280 279 279 277 275
210 214 226 240 260 276 284 290 291 293 291 294 298 301 300 302 305 306 308 310 312 314 309 302 300 297 292 289 288 286 283 282 280 278 278 277 277 275
223 222 237 253 262 288 295 289 290 295 297 300 302 306 306 308 309 311 315 313 312 314 311 309 302 301 295 291 288 287 286 282 279 279 279 277 276 275
214 217 246 274 304 291 284 288 292 295 297 299 304 309 309 313 314 314 314 316 320 320 315 311 311 309 302 297 291 288 286 282 280 278 277 275 274 273
228 255 288 310 288 287 292 294 295 298 300 301 303 306 309 316 315 319 319 320 319 319 319 314 315 313 308 306 302 301 297 292 287 281 276 274 273 273
263 295 314 284 288 295 297 298 300 302 302 302 303 307 311 315 315 316 313 319 318 322 323 320 319 316 316 313 310 304 300 296 291 284 279 276 274 273
317 332 292 287 295 299 299 295 299 303 300 301 304 306 308 309 311 313 316 316 312 319 320 314 316 313 316 314 311 308 305 299 288 284 280 278 275 273
297 288 287 294 301 304 304 303 299 296 296 301 299 300 302 310 315 313 312 309 307 313 314 309 315 314 319 314 313 312 306 297 289 285 282 280 276 273
302 300 303 309 311 309 307 313 306 306 308 304 302 304 308 311 306 303 305 307 306 312 316 306 321 316 317 314 316 315 314 307 303 294 288 284 280 275
308 313 314 313 312 319 315 306 306 312 307 301 299 303 309 311 310 308 312 310 312 317 322 303 320 316 315 317 317 318 318 313 309 301 294 287 282 279
319 317 317 318 319 321 310 304 307 315 312 315 318 316 316 315 313 309 312 314 316 317 316 313 315 317 316 311 312 316 315 315 311 306 303 297 288 279
323 324 324 320 317 317 313 307 311 316 308 314 317 322 323 320 319 316 315 314 314 308 322 315 308 310 299 307 310 314 316 317 314 312 307 302 294 281
326 323 320 319 322 321 318 315 311 311 317 319 321 325 327 329 330 327 325 321 315 313 321 317 305 309 307 305 306 313 315 314 313 312 310 306 298 291
321 324 324 324 325 325 323 322 320 320 321 322 324 328 328 330 333 329 326 325 318 321 325 324 317 315 307 303 305 308 311 316 312 310 311 308 301 293
325 327 326 327 327 327 326 323 323 326 328 327 326 326 331 334 335 334 332 330 325 328 333 335 329 321 314 311 310 307 312 303 312 313 311 307 303 297
324 326 329 333 334 333 335 334 333 331 328 329 327 330 337 336 337 339 338 337 332 332 332 337 335 329 324 320 314 313 311 312 316 316 313 309 304 302
330 333 335 334 336 338 339 340 340 336 333 332 332 335 337 338 337 342 342 342 339 338 337 340 339 336 333 325 318 315 315 313 321 319 313 306 308 308
333 332 333 337 339 339 339 339 339 340 336 336 335 337 339 339 338 341 341 340 341 341 340 341 338 335 318 310 327 308 299 315 317 315 314 307 303 304
334 335 339 341 339 339 339 339 340 340 339 337 338 341 340 337 341 342 343 343 342 339 336 341 341 337 318 311 314 330 339 325 322 318 318 316 309 311
335 340 342 342 341 340 340 340 340 340 341 338 337 340 340 339 340 341 343 343 339 338 337 339 340 340 335 336 324 330 341 347 338 327 324 313 312 312
332 338 341 342 342 342 341 339 340 342 340 336 339 340 338 341 343 342 343 341 339 339 338 337 339 340 341 334 328 333 341 352 358 355 348 329 316 290
324 329 337 340 339 341 340 339 339 342 340 337 340 340 340 341 342 341 339 339 340 339 337 335 336 339 339 338 335 336 342 346 350 350 2 357 336 318
Height
1498 1500 1503 1502 1504 1506 1505 1507 1508 1504 1501 1502 1503 1501 1499 1495 1492 1488 1485 1480 1476 1472 1468 1464 1461 1460 1458 1457 1455 1453 1451 1449 1448 1447 1446 1445 1444 1443
1492 1493 1496 1497 1498 1502 1502 1503 1503 1500 1497 1496 1496 1495 1493 1489 1486 1481 1478 1473 1469 1465 1461 1456 1453 1452 1451 1448 1446 1444 1442 1440 1439 1438 1436 1435 1434 1433
1488 1489 1490 1492 1493 1495 1498 1498 1498 1495 1491 1488 1487 1488 1485 1482 1478 1475 1471 1466 1461 1458 1453 1448 1445 1444 1442 1440 1437 1435 1433 1431 1430 1428 1427 1425 1424 1423
1487 1485 1487 1489 1489 1491 1491 1492 1492 1490 1486 1481 1480 1479 1477 1475 1470 1466 1463 1459 1454 1450 1445 1440 1438 1435 1432 1430 1428 1426 1424 1422 1420 1418 1417 1415 1413 1412
1485 1483 1483 1486 1487 1487 1489 1488 1485 1483 1481 1477 1473 1471 1468 1466 1460 1458 1454 1449 1445 1441 1438 1434 1430 1428 1424 1422 1420 1418 1415 1412 1409 1407 1406 1404 1403 1402
1480 1481 1479 1480 1484 1484 1482 1483 1480 1477 1476 1473 1468 1464 1462 1458 1454 1450 1443 1441 1436 1434 1431 1427 1423 1420 1417 1414 1410 1407 1403 1400 1397 1395 1394 1393 1392 1390
1477 1477 1478 1480 1480 1476 1475 1478 1475 1471 1469 1467 1462 1458 1454 1451 1449 1445 1438 1433 1429 1426 1420 1417 1415 1410 1407 1404 1401 1397 1393 1390 1387 1386 1384 1383 1382 1381
1475 1472 1476 1478 1474 1473 1472 1473 1470 1465 1463 1460 1457 1452 1449 1447 1444 1439 1434 1429 1420 1420 1414 1408 1408 1402 1399 1395 1391 1387 1384 1380 1378 1376 1374 1372 1371 1370
1472 1471 1474 1474 1471 1469 1469 1466 1464 1461 1459 1456 1451 1449 1445 1443 1439 1434 1429 1423 1418 1414 1410 1396 1399 1392 1390 1386 1382 1379 1375 1371 1368 1366 1365 1363 1362 1360
1469 1472 1471 1469 1467 1465 1462 1459 1456 1455 1453 1450 1447 1443 1440 1437 1434 1429 1423 1416 1411 1409 1405 1391 1390 1383 1379 1374 1373 1370 1368 1364 1361 1358 1356 1354 1352 1350
1469 1469 1467 1465 1463 1459 1457 1453 1451 1450 1448 1445 1442 1439 1436 1432 1428 1422 1417 1411 1402 1399 1396 1388 1381 1373 1367 1363 1361 1360 1358 1354 1351 1348 1345 1342 1340 1338
1467 1466 1463 1459 1456 1456 1453 1449 1446 1444 1440 1437 1435 1433 1430 1427 1423 1418 1412 1406 1400 1392 1390 1384 1377 1373 1358 1354 1352 1350 1348 1346 1341 1338 1334 1331 1329 1327
1463 1460 1457 1455 1453 1451 1448 1445 1441 1438 1435 1432 1429 1427 1424 1421 1417 1413 1409 1403 1397 1391 1387 1380 1372 1368 1364 1348 1340 1340 1338 1333 1330 1325 1323 1320 1318 1315
1458 1456 1454 1452 1449 1446 1443 1440 1437 1434 1431 1429 1425 1422 1418 1415 1412 1407 1403 1399 1393 1385 1380 1376 1366 1362 1355 1346 1335 1330 1328 1323 1319 1314 1311 1309 1308 1306
1456 1453 1450 1447 1444 1441 1438 1436 1433 1431 1428 1425 1421 1418 1414 1410 1406 1401 1397 1391 1385 1380 1374 1368 1361 1355 1350 1342 1332 1324 1318 1313 1310 1305 1302 1299 1297 1295
1452 1450 1446 1443 1440 1438 1435 1433 1430 1427 1424 1421 1417 1413 1409 1404 1400 1395 1388 1382 1375 1369 1365 1360 1355 1348 1341 1335 1328 1317 1313 1306 1302 1299 1293 1288 1286 1284
1448 1446 1443 1439 1436 1434 1432 1430 1428 1425 1422 1418 1413 1409 1405 1400 1394 1389 1382 1375 1368 1361 1355 1351 1347 1340 1334 1328 1319 1311 1304 1298 1293 1288 1284 1278 1275 1273
1444 1441 1439 1436 1433 1431 1428 1427 1425 1421 1418 1413 1410 1406 1401 1395 1389 1383 1379 1372 1363 1356 1349 1343 1336 1328 1322 1316 1313 1302 1294 1290 1285 1280 1276 1270 1262 1261
1442 1439 1436 1434 1431 1429 1426 1424 1421 1418 1414 1410 1406 1402 1397 1391 1386 1380 1374 1367 1359 1352 1345 1339 1332 1326 1317 1307 1302 1301 1292 1284 1279 1272 1269 1264 1257 1251
1439 1436 1434 1432 1429 1427 1424 1421 1418 1414 1411 1407 1403 1399 1394 1388 1382 1376 1370 1363 1355 1347 1340 1335 1329 1323 1317 1309 1298 1286 1286 1279 1273 1265 1259 1254 1248 1243
1436 1434 1432 1430 1428 1425 1422 1418 1415 1411 1406 1403 1400 1396 1391 1385 1378 1372 1366 1360 1354 1346 1336 1329 1324 1319 1311 1303 1293 1282 1277 1275 1268 1260 1252 1247 1240 1234
1434 1432 1430 1428 1425 1422 1419 1416 1412 1408 1404 1400 1396 1392 1387 1381 1374 1368 1361 1355 1348 1341 1333 1325 1318 1312 1305 1299 1290 1281 1271 1265 1262 1255 1249 1244 1237 1229
1431 1430 1427 1425 1422 1419 1417 1413 1409 1405 1401 1397 1393 1388 1382 1376 1370 1364 1357 1351 1344 1336 1330 1320 1313 1307 1301 1294 1287 1278 1269 1261 1253 1247 1242 1238 1232 1226